7 * 24
多渠道服务支持
STARLINK-11127是美国SpaceX星链互联网星座的一员,于2024年6月24日发射入轨。它延续星链项目低轨卫星布局,依托批量部署星座优势,为全球提供高速低延迟互联网服务,覆盖偏远地区、海洋空域等网络空白区域,进一步扩充美国星链系统全球服务覆盖能力与网络容量。
美国
(US)
| 数据来源 | 国际轨道数据 |
| 星历时间: | 2026-05-24T05:11:41+0800 1天前 查看轨道信息 |
| 半长轴: | 6737.882km |
| 偏心率: | 0.0001019 |
| 轨道倾角: | 53.160° |
| 近地点辐角 | 89.877° |
| 升交点赤经 | 210.557° |
| 平近点角 | 270.237° |
| 近地点: | 359.058km |
| 远地点: | 360.432km |
| 周期: | 91.737分钟 |
| 每日圈数: | 15.697037 |